Voltar ao catálogo

ELECTRON KICK STAGE R/B

AtivoVLEO
NORAD 58579·ROCKET BODY·🇺🇸 United States

Lançado Dec 15, 2023 de Rocket Lab Launch Complex 1

Loading…

Próximas Passagens (próximas 24 horas)

TLE

AtualizadoSource: Space-Track

Época: Sep 14, 2026, 01:50 UTC

1 58579U 23196B   26257.07659798  .00004768  00000-0  26234-3 0  9993
2 58579  42.0182 262.3902 0018004 109.7304 250.5471 15.14803057151414

Acompanhe ELECTRON KICK STAGE R/B em tempo real com AllMySat

Download on the App Store